{"data":{"norad_id":69894,"intl_designator":"2026-156AB","name":"GRUS-3F","alt_names":[],"object_type":"PAYLOAD","status":"ACTIVE","operator":null,"country":"JPN","launch_date":"2026-07-07","launch_site_code":"AFWTR","launch_vehicle":null,"mission":null,"orbit_class":"UNKNOWN","rcs_meters":null,"size_class":null,"mass_kg":null,"dimensions":null,"purposes":[],"wikipedia_slug":null,"has_3d_model":false,"image_url":null,"decayed_at":null,"tle_current":{"epoch":"2026-09-19T22:33:27.601920Z","epoch_age_seconds":70068,"freshness":"FRESH","line1":"1 69894U 26156AB  26262.93990280  .00000755  00000+0  80721-4 0  9992","line2":"2 69894  97.7466 162.1356 0004170 258.3240 101.7511 14.91631750 11125","mean_motion":14.9163175,"eccentricity":0.000417,"inclination_deg":97.7466,"raan_deg":162.1356,"arg_perigee_deg":258.324,"mean_anomaly_deg":101.7511,"bstar":8.0721e-5,"rev_number":1112,"period_min":96.538572606811,"perigee_km":589.94025112998,"apogee_km":595.75405191235,"semimajor_km":6970.9841515212,"source":"CELESTRAK","updated_at":"2026-09-20T09:00:25.169584Z"}}}